FW6327 Weather Reports


Display with metric or nautical units.
time (UTC)temp
F
wind
direction
speed
MPH
gust
MPH
rain 1hr
in
rain 24hr
in
rain mn
in
humidity
%
barometer
mb
20260502123058 42 155 0.0 4.0 0.00 0.38 0.19 91 1009.7
20260502121527 42 190 2.0 6.0 0.00 0.38 0.19 92 1009.5
20260502114521 43 174 5.0 9.0 0.00 0.38 0.19 93 1009.1
20260502113019 42 240 0.0 0.0 0.00 0.38 0.19 93 1008.9
20260502111517 42 240 0.0 0.0 0.00 0.38 0.19 93 1008.8
20260502110015 41 240 0.0 0.0 0.00 0.38 0.19 92 1008.6
20260502104511 41 240 0.0 0.0 0.00 0.38 0.19 92 1008.5
20260502103012 41 240 0.0 0.0 0.00 0.38 0.19 92 1008.3
20260502101504 41 240 0.0 0.0 0.00 0.38 0.19 92 1008.0
20260502071533 42 11 1.0 4.0 0.02 0.35 0.16 90 1007.3
20260502070032 42 5 1.0 3.0 0.02 0.34 0.15 90 1007.2
20260502064534 42 342 0.0 3.0 0.02 0.33 0.14 90 1007.2
20260502063034 42 355 3.0 7.0 0.05 0.33 0.14 89 1007.1
20260502061524 43 335 3.0 8.0 0.07 0.33 0.14 89 1007.1
20260502060024 43 262 5.0 12.0 0.08 0.32 0.13 89 1007.2
20260502054523 43 279 1.0 8.0 0.07 0.31 0.12 90 1007.2
20260502053017 43 213 4.0 10.0 0.06 0.28 0.09 90 1007.2
20260502051521 43 30 2.0 6.0 0.04 0.26 0.07 90 1006.9
20260502050027 43 238 2.0 8.0 0.03 0.24 0.06 89 1007.1
20260502044509 43 230 5.0 10.0 0.02 0.24 0.05 90 1007.4
20260502043005 43 257 5.0 10.0 0.02 0.23 0.04 90 1006.9
20260502041502 43 252 5.0 11.0 0.02 0.22 0.03 89 1007.3
20260502040107 43 207 6.0 10.0 0.02 0.21 0.02 90 1007.6
20260502034603 43 274 6.0 11.0 0.03 0.21 0.02 90 1007.7
20260502033051 43 250 6.0 8.0 0.03 0.20 0.02 90 1007.8
20260502031547 43 194 3.0 10.0 0.02 0.20 0.01 90 1007.7
20260502030043 42 5 3.0 5.0 0.03 0.19 0.00 90 1007.9
20260502024550 42 5 3.0 9.0 0.03 0.18 0.18 89 1008.0
20260502023038 42 332 5.0 10.0 0.03 0.17 0.17 89 1008.0
20260502021537 43 340 6.0 14.0 0.04 0.17 0.17 89 1008.0
20260502020034 43 5 4.0 9.0 0.03 0.16 0.16 89 1008.2
20260502014534 43 91 5.0 10.0 0.04 0.15 0.15 89 1008.3
20260502013031 43 16 1.0 9.0 0.04 0.14 0.14 89 1008.5
20260502011529 43 175 5.0 12.0 0.04 0.13 0.13 89 1008.3
20260502010030 43 17 2.0 5.0 0.03 0.13 0.13 89 1008.2
20260502004544 43 337 4.0 11.0 0.02 0.11 0.11 90 1008.1
20260502003021 43 281 2.0 7.0 0.03 0.10 0.10 90 1008.2
20260502001518 42 283 2.0 6.0 0.03 0.09 0.09 90 1008.4
20260502000015 42 300 5.0 8.0 0.04 0.09 0.09 90 1008.3
20260501234513 42 15 1.0 10.0 0.03 0.09 0.09 90 1008.5
20260501233010 42 329 2.0 9.0 0.02 0.07 0.07 90 1008.5
20260501231515 42 360 3.0 11.0 0.02 0.06 0.06 90 1008.6
20260501230006 42 332 2.0 10.0 0.02 0.06 0.06 90 1008.6
20260501224503 41 14 5.0 13.0 0.02 0.06 0.06 90 1008.7
20260501223005 41 355 5.0 11.0 0.02 0.05 0.05 89 1008.8
20260501221600 41 10 7.0 14.0 0.02 0.04 0.04 89 1009.0
20260501220101 41 26 4.0 17.0 0.02 0.04 0.04 89 1009.4
20260501214550 42 23 7.0 14.0 0.02 0.03 0.03 88 1009.5
20260501213051 42 340 5.0 10.0 0.02 0.03 0.03 88 1009.6
20260501211553 43 28 6.0 13.0 0.02 0.02 0.02 89 1009.6
20260501210143 43 355 5.0 14.0 0.02 0.02 0.02 89 1009.7
20260501204539 43 341 7.0 11.0 0.01 0.02 0.02 88 1009.7
20260501203034 43 42 4.0 11.0 0.00 0.01 0.01 88 1009.9
20260501201533 43 28 6.0 12.0 0.00 0.01 0.01 88 1010.0
20260501200030 43 14 7.0 12.0 0.01 0.01 0.01 88 1010.0
20260501194534 44 37 7.0 13.0 0.01 0.01 0.01 88 1010.0
20260501193025 44 49 5.0 12.0 0.01 0.01 0.01 88 1010.2
20260501191527 44 347 8.0 14.0 0.01 0.01 0.01 88 1010.3
20260501190020 45 30 5.0 12.0 0.00 0.00 0.00 88 1010.8
20260501184515 45 355 4.0 15.0 0.00 0.00 0.00 87 1010.8
20260501183013 47 9 4.0 6.0 0.00 0.00 0.00 87 1011.0
20260501181511 47 129 2.0 12.0 0.00 0.00 0.00 87 1011.1
20260501180116 47 111 6.0 12.0 0.00 0.00 0.00 88 1010.9
20260501174505 46 5 5.0 13.0 0.00 0.00 0.00 88 1010.9
20260501173002 45 28 5.0 14.0 0.00 0.00 0.00 87 1011.4
20260501171558 45 294 3.0 17.0 0.00 0.00 0.00 87 1011.4
20260501170056 46 36 4.0 11.0 0.00 0.00 0.00 87 1011.7
20260501164552 45 40 3.0 12.0 0.00 0.00 0.00 88 1011.9
20260501163056 45 92 2.0 12.0 0.00 0.00 0.00 87 1012.1
20260501161547 45 18 6.0 15.0 0.00 0.00 0.00 85 1012.3
20260501160046 46 101 3.0 15.0 0.00 0.00 0.00 85 1012.3
20260501154542 46 23 2.0 10.0 0.00 0.00 0.00 86 1012.2
20260501153037 46 40 6.0 15.0 0.00 0.00 0.00 87 1012.4
20260501151546 46 96 5.0 14.0 0.00 0.00 0.00 87 1012.7
20260501150043 46 39 6.0 12.0 0.00 0.00 0.00 85 1012.8
20260501144531 48 32 3.0 10.0 0.00 0.00 0.00 85 1012.7
20260501143028 48 60 6.0 12.0 0.00 0.00 0.00 84 1012.8